Погода в Большой Луке

Россия / Пензенская область     53°42′12″N   42°54′24″E
темп.,
°C
ветер,
м/с
пор.,
м/с
влажн.,
%
обл.,
%
осадки,
мм/ч
давл.,
гПа
погр.,
м
28 февраля, вс
вс2800:00−13ссз4897100 0.1 1012205
03:00−15сз369895 0.1 1013117
06:00−16сз349891 0.0 101477
09:00−14сз359788 0.1 1015220
12:00−10ссз359199 0.0 1015482
15:00−8ссз358999 0.1 1015604
18:00−10с3494100 0.1 101695
21:00−13ссв2296100 0.1 101920
1 марта, пн
пн100:00−15ссв229784 0.0 102020
03:00−16с229545 0.0 102220
06:00−17ссз12977 0.0 102420
09:00−14ссз23967 0.0 102592
12:00−10з239053 0.0 1025274
15:00−7юз369276 0.1 1024397
18:00−9зюз4596100 0.0 102394
21:00−10юз499799 0.1 1022206
2 марта, вт
вт200:00−5юз61194100 0.1 1018388
03:00−4юз81495100 0.4 1014471
06:00−2зюз81596100 1.3 1010596
09:000з81398100 3.1 1007752
12:000зсз71298100 1.3 1005722
15:000сз81298100 1.9 1005922
18:00−2сз6138899 0.5 1006641
21:00−2сз51390100 0.6 1008711
3 марта, ср
ср300:00−3сз51194100 0.3 1008610
03:00−4сз5119697 0.6 1008545
06:00−5сз6129499 0.3 1009607
09:00−5сз71292100 0.5 1010818
12:00−4ссз71189100 0.1 1012895
15:00−4ссз81284100 0.3 10131052
18:00−5сз5128892 0.1 1015409
21:00−8сз4109255 0.1 1017214
4 марта, чт
чт400:00−10зсз47960 0.0 1018111
03:00−11зсз359825 0.0 101986
06:00−10з369880 0.1 1019118
09:00−8зюз489790 0.1 1019239
12:00−3зюз61093100 0.0 1017469
15:00−1зюз7128896 0.0 1015655
18:00−3юз6148988 0.0 1013549
21:00−3юз7168993 0.0 1011602